Location: ScottNC Observatory
(36.0892°N, 80.4832°W)
Time: 09:20:35
(UTC-05:00)

OTV 5 (USA 277) - Visible Passes

Search period start: 20 February 2019 00:00
Search period end: 02 March 2019 00:00
Orbit: 342 x 346 km, 54.5° (Epoch: 17 February)

Date Brightness Start Highest point End Pass type
(mag) Time Alt. Az. Time Alt. Az. Time Alt. Az.
21 Feb ? 18:55:32 10° SSE 18:56:44 12° SE 18:56:53 12° ESE visible
22 Feb ? 19:17:21 10° SSW 19:20:08 48° SE 19:20:40 41° E visible
23 Feb ? 19:41:05 10° WSW 19:43:46 36° NW 19:44:19 32° NNW visible
24 Feb ? 20:06:14 10° WNW 20:07:40 13° NNW 20:07:48 13° NNW visible
25 Feb ? 18:53:29 10° WSW 18:56:12 38° NW 18:58:56 10° NNE visible
26 Feb ? 19:18:33 10° WNW 19:20:05 13° NW 19:21:37 10° N visible
